Location: Johnson City
(36.3130°N, 82.3540°W)
Time: 07:00:05
(UTC-04:00)

Amateur Radio Satellites - All Passes

Search period start: 26 September 2017 06:30
Search period end: 27 September 2017 06:30
Location: Johnson City, 36.3130°N, 82.3540°W

Satellite Date Start Highest point End Downlink Frequencies (MHz)
Time Altitude Azimuth
AO-7 26 Sep 06:31:50 06:38:58 34° 299° (WNW) 06:46:06 .
CUBESAT XI-V 26 Sep 06:35:37 06:36:48 11° 269° (W) 06:38:00 437.345
BEESAT 2 26 Sep 06:44:53 06:47:55 21° 249° (WSW) 06:50:55 435.950
XW-2D 26 Sep 06:53:19 06:56:21 23° 96° (E) 06:59:22 145.860 - 145.880
AO-85 26 Sep 06:57:14 07:00:33 20° 249° (WSW) 07:04:03 145.980
XW-2F 26 Sep 07:03:16 07:06:31 27° 97° (E) 07:09:44 145.980 - 146.000
XW-2B 26 Sep 07:05:28 07:08:52 31° 97° (E) 07:12:14 145.730 - 145.750
RS-15 26 Sep 07:05:49 07:17:37 51° 309° (NW) 07:29:32 29.354- 29.394
NUDT-PHONESAT 26 Sep 07:17:04 07:20:24 30° 97° (E) 07:23:40 437.300
XW-2C 26 Sep 07:26:42 07:30:28 63° 101° (E) 07:34:12 145.795 - 145.815
CUTE 1.7 + AOD 2 26 Sep 07:30:18 07:31:41 11° 91° (E) 07:33:05 437.475
STRAND 1 26 Sep 07:31:23 07:35:56 34° 70° (ENE) 07:40:31 437.568
LilacSat-2 26 Sep 07:42:25 07:46:14 72° 283° (WNW) 07:50:00 437.200
CUTE-I 26 Sep 07:44:37 07:49:58 71° 102° (ESE) 07:55:17 437.470
KAITUO 1B 26 Sep 07:49:50 07:53:35 86° 285° (WNW) 07:57:16 145.475/437.950
DOVE 4 26 Sep 07:57:46 08:00:25 16° 292° (WNW) 08:03:10 437.250
XW-2A 26 Sep 08:21:03 08:23:11 16° 94° (E) 08:25:17 145.665 - 145.685
CUBEBUG 2 26 Sep 08:26:36 08:30:53 33° 97° (E) 08:35:09 437.445
XW-2D 26 Sep 08:27:35 08:30:22 20° 290° (WNW) 08:33:08 145.860 - 145.880
UWE-3 26 Sep 08:28:12 08:31:34 19° 94° (E) 08:34:54 435.000/436.395/437.385
SEEDS 26 Sep 08:30:08 08:34:00 36° 98° (E) 08:37:50 437.485
XW-2F 26 Sep 08:37:59 08:40:23 16° 291° (WNW) 08:42:47 145.980 - 146.000
XW-2B 26 Sep 08:40:34 08:42:45 15° 292° (WNW) 08:44:54 145.730 - 145.750
HO-68 26 Sep 08:40:46 08:47:58 72° 104° (ESE) 08:55:08 435.675
AAUSAT CUBESAT 2 26 Sep 08:44:31 08:47:45 22° 95° (E) 08:50:58 437.432
NUDT-PHONESAT 26 Sep 08:51:53 08:53:57 14° 292° (WNW) 08:56:00 437.300
Oscar 11 26 Sep 09:01:23 09:03:20 13° 92° (E) 09:05:16 .
CUTE 1.7 + AOD 2 26 Sep 09:03:41 09:07:46 48° 286° (WNW) 09:11:48 437.475
AO-73 26 Sep 09:04:27 09:08:01 22° 94° (E) 09:11:32 145.935
FO-29 26 Sep 09:08:35 09:13:37 34° 71° (ENE) 09:18:19 435.910
ZACube-1 26 Sep 09:08:47 09:12:44 28° 96° (E) 09:16:38 437.345
STRAND 1 26 Sep 09:11:03 09:15:07 24° 265° (W) 09:19:13 437.568
RS-15 26 Sep 09:26:10 09:34:09 19° 339° (NNW) 09:42:05 29.354- 29.394
CUTE-I 26 Sep 09:26:47 09:29:21 14° 298° (WNW) 09:31:55 437.470
XW-2A 26 Sep 09:53:07 09:55:49 22° 289° (WNW) 09:58:31 145.665 - 145.685
UNISAT 6 26 Sep 09:59:07 10:02:54 30° 71° (ENE) 10:06:47 437.425
CUBEBUG 2 26 Sep 10:03:35 10:07:15 23° 291° (WNW) 10:10:56 437.445
UWE-3 26 Sep 10:03:47 10:08:04 36° 288° (WNW) 10:12:19 435.000/436.395/437.385
PRISM 26 Sep 10:03:54 10:06:30 16° 67° (ENE) 10:09:05 437.425
SEEDS 26 Sep 10:06:50 10:09:20 16° 292° (WNW) 10:11:49 437.485
Max Valier Satellite 26 Sep 10:14:09 10:15:32 12° 92° (E) 10:16:53 145.860
AAUSAT CUBESAT 2 26 Sep 10:19:48 10:23:06 24° 290° (WNW) 10:26:23 437.432
TIGRISAT 26 Sep 10:21:29 10:25:39 49° 74° (ENE) 10:29:57 435.000
HO-68 26 Sep 10:29:58 10:34:57 21° 301° (WNW) 10:39:55 435.675
Oscar 11 26 Sep 10:35:32 10:39:41 46° 286° (WNW) 10:43:48 .
AO-73 26 Sep 10:40:13 10:44:12 30° 289° (WNW) 10:48:07 145.935
ZACube-1 26 Sep 10:45:10 10:48:50 24° 291° (WNW) 10:52:29 437.345
FO-29 26 Sep 10:54:08 10:58:44 25° 263° (W) 11:03:05 435.910
EO-88 26 Sep 11:06:13 11:09:42 41° 99° (E) 11:13:09 145.990 - 145.960
DELFI C3 26 Sep 11:20:02 11:23:54 62° 284° (WNW) 11:27:45 145.870
UNISAT 6 26 Sep 11:36:22 11:39:37 20° 266° (W) 11:42:56 437.425
PRISM 26 Sep 11:37:45 11:41:28 33° 262° (W) 11:45:11 437.425
Max Valier Satellite 26 Sep 11:46:02 11:49:29 36° 287° (WNW) 11:52:54 145.860
RS-15 26 Sep 11:46:15 11:53:44 18° 17° (NNE) 12:01:01 29.354- 29.394
POLYITAN 1 26 Sep 11:48:13 11:51:20 21° 69° (ENE) 11:54:29 437.675
EO-79 26 Sep 11:51:27 11:54:43 22° 69° (ENE) 11:58:00 145.935-145.965
LO-87 26 Sep 11:53:21 11:55:55 18° 95° (E) 11:58:28 145.935 - 145.965
TIGRISAT 26 Sep 12:00:50 12:02:38 12° 269° (W) 12:04:27 435.000
O/OREOS (USA 219) 26 Sep 12:01:46 12:05:49 30° 63° (ENE) 12:09:51 437.305
QB50P2 26 Sep 12:05:30 12:09:21 36° 72° (ENE) 12:13:14 145.880/145.840
AIST 2D 26 Sep 12:06:13 12:09:45 82° 259° (W) 12:13:19 435.315
NO-84 26 Sep 12:31:51 12:35:54 83° 136° (SE) 12:39:40 435.350 FM
NANOSAT C BR1 26 Sep 12:37:23 12:41:32 71° 77° (ENE) 12:45:44 145.865
EO-88 26 Sep 12:42:11 12:42:55 10° 293° (WNW) 12:43:39 145.990 - 145.960
YUBILEINY 26 Sep 12:42:31 12:51:05 66° 92° (E) 12:59:39 435.215
M-CUBED/EXP-1 PRIME 26 Sep 12:55:17 12:59:21 46° 70° (ENE) 13:03:10 437.505
SPROUT 26 Sep 13:02:48 13:05:56 19° 95° (E) 13:09:02 437.525
DUCHIFAT 1 26 Sep 13:04:07 13:08:15 62° 260° (W) 13:12:25 145.980
ESTCUBE 1 26 Sep 13:11:07 13:15:37 74° 284° (WNW) 13:20:04 437.505/2401.250
POLYITAN 1 26 Sep 13:23:16 13:26:54 28° 263° (W) 13:30:34 437.675
LO-87 26 Sep 13:26:24 13:29:15 22° 289° (WNW) 13:32:04 145.935 - 145.965
EO-79 26 Sep 13:26:49 13:30:18 26° 264° (W) 13:33:51 145.935-145.965
VELOX 1 26 Sep 13:26:53 13:30:33 26° 96° (E) 13:34:13 145.980
BUGSAT 1 26 Sep 13:27:09 13:31:04 56° 75° (ENE) 13:35:03 437.445
O/OREOS (USA 219) 26 Sep 13:41:26 13:45:02 23° 259° (WSW) 13:48:37 437.305
QB50P2 26 Sep 13:42:40 13:45:14 16° 267° (W) 13:47:49 145.880/145.840
AO-7 26 Sep 13:50:00 13:51:32 11° 47° (NE) 13:53:04 .
RS-15 26 Sep 13:59:04 14:10:30 47° 49° (NE) 14:21:18 29.354- 29.394
Oscar 19 26 Sep 14:01:00 14:06:07 63° 74° (ENE) 14:11:16 437.125/150
SO-50 26 Sep 14:02:33 14:07:03 87° 118° (ESE) 14:11:33 436.795
Gurwin Techsat 1B 26 Sep 14:11:04 14:16:12 52° 72° (ENE) 14:21:21 435.225
NO-84 26 Sep 14:11:35 14:13:39 14° 327° (NNW) 14:15:39 435.350 FM
50 SAT 26 Sep 14:12:09 14:14:50 22° 97° (E) 14:17:29 437.505
UKube-1 26 Sep 14:13:36 14:15:28 13° 93° (E) 14:17:20 .
DX 1 26 Sep 14:25:31 14:29:18 29° 98° (E) 14:33:03 434.975-435.025
M-CUBED/EXP-1 PRIME 26 Sep 14:31:58 14:33:50 13° 261° (W) 14:35:40 437.505
PCSat 26 Sep 14:31:59 14:37:18 63° 114° (ESE) 14:42:41 145.827
SPROUT 26 Sep 14:38:03 14:41:49 30° 289° (WNW) 14:45:34 437.525
YUBILEINY 26 Sep 14:41:50 14:48:29 24° 291° (WNW) 14:55:12 435.215
VELOX 1 26 Sep 15:03:21 15:06:52 24° 291° (WNW) 15:10:23 145.980
ITAMSAT 1 26 Sep 15:14:31 15:18:09 20° 65° (ENE) 15:21:47 435.822/435.867
AO-7 26 Sep 15:34:26 15:42:29 56° 67° (ENE) 15:50:33 .
ITUPSAT 1 26 Sep 15:42:43 15:45:27 15° 93° (E) 15:48:10 437.325
Oscar 19 26 Sep 15:43:23 15:45:48 13° 268° (W) 15:48:14 437.125/150
50 SAT 26 Sep 15:45:11 15:47:05 15° 291° (WNW) 15:48:59 437.505
SO-50 26 Sep 15:46:40 15:48:07 11° 317° (NW) 15:49:34 436.795
UKube-1 26 Sep 15:47:34 15:51:42 47° 287° (WNW) 15:55:49 .
Gurwin Techsat 1B 26 Sep 15:53:04 15:56:24 17° 267° (W) 15:59:45 435.225
DX 1 26 Sep 16:02:00 16:05:17 21° 292° (WNW) 16:08:33 434.975-435.025
RS-15 26 Sep 16:11:51 16:23:00 51° 251° (WSW) 16:33:35 29.354- 29.394
BEESAT 26 Sep 16:15:48 16:20:11 35° 98° (E) 16:24:33 436.000
PCSat 26 Sep 16:17:29 16:21:09 18° 311° (NW) 16:24:49 145.827
MOZHAYETS 4 26 Sep 16:18:42 16:23:03 39° 98° (E) 16:27:20
ITAMSAT 1 26 Sep 16:52:18 16:57:14 45° 260° (W) 17:02:12 435.822/435.867
CUBESAT XI-V 26 Sep 16:54:32 16:57:46 19° 94° (E) 17:00:59 437.345
ITUPSAT 1 26 Sep 17:18:51 17:23:30 49° 287° (WNW) 17:28:07 437.325
DOVE 4 26 Sep 17:22:20 17:26:06 29° 72° (ENE) 17:29:44 437.250
AO-7 26 Sep 17:28:34 17:35:31 29° 263° (W) 17:42:30 .
CUTE-I 26 Sep 17:29:21 17:29:55 10° 60° (ENE) 17:30:28 437.470
XW-2F 26 Sep 17:44:24 17:44:37 10° 66° (ENE) 17:44:52 145.980 - 146.000
XW-2B 26 Sep 17:46:00 17:47:20 12° 67° (ENE) 17:48:39 145.730 - 145.750
KKS-1 26 Sep 17:51:57 17:55:38 25° 96° (E) 17:59:18 437.445
BEESAT 26 Sep 17:54:05 17:57:41 22° 293° (WNW) 18:01:17 436.000
NUDT-PHONESAT 26 Sep 17:56:06 17:56:44 10° 66° (ENE) 17:57:23 437.300
MOZHAYETS 4 26 Sep 17:56:43 17:59:51 18° 293° (WNW) 18:03:00
XW-2C 26 Sep 18:05:47 18:08:43 21° 70° (ENE) 18:11:38 145.795 - 145.815
STARS 26 Sep 18:07:52 18:10:16 14° 93° (E) 18:12:40 437.465
LilacSat-2 26 Sep 18:21:26 18:24:59 35° 73° (ENE) 18:28:32 437.200
JUGNU 26 Sep 18:25:26 18:28:15 14° 172° (S) 18:31:05 437.505
KAITUO 1B 26 Sep 18:27:10 18:30:25 27° 72° (ENE) 18:33:40 145.475/437.950
CUBESAT XI-V 26 Sep 18:31:00 18:35:13 36° 288° (WNW) 18:39:23 437.345
Tancredo 1 26 Sep 18:39:00 18:41:39 85° 311° (NW) 18:44:19 437.200
BEESAT 3 26 Sep 18:40:29 18:43:29 21° 111° (ESE) 18:46:32 437.485
ISS 26 Sep 19:00:15 19:02:12 15° 128° (SE) 19:04:09 437.550
DOVE 4 26 Sep 19:00:32 19:03:46 20° 265° (W) 19:06:55 437.250
CUTE-I 26 Sep 19:03:49 19:09:07 89° 80° (E) 19:14:26 437.470
XW-2D 26 Sep 19:04:46 19:08:34 61° 260° (W) 19:12:23 145.860 - 145.880
HO-68 26 Sep 19:06:37 19:13:10 41° 67° (ENE) 19:19:45 435.675
NO-84 26 Sep 19:08:56 19:10:35 14° 32° (NNE) 19:12:12 435.350 FM
XW-2F 26 Sep 19:14:32 19:18:14 49° 260° (W) 19:21:59 145.980 - 146.000
XW-2B 26 Sep 19:17:24 19:21:04 43° 261° (W) 19:24:46 145.730 - 145.750
SEEDS 26 Sep 19:19:44 19:22:44 19° 69° (ENE) 19:25:43 437.485
CUBEBUG 2 26 Sep 19:22:56 19:25:56 19° 68° (ENE) 19:29:00 437.445
UWE-3 26 Sep 19:24:41 19:25:51 11° 64° (ENE) 19:27:02 435.000/436.395/437.385
NUDT-PHONESAT 26 Sep 19:26:32 19:30:08 45° 261° (W) 19:33:46 437.300
KKS-1 26 Sep 19:28:24 19:32:04 26° 291° (WNW) 19:35:44 437.445
AO-85 26 Sep 19:29:30 19:32:24 20° 111° (ESE) 19:35:18 145.980
nSIGHT-1 26 Sep 19:31:50 19:34:49 38° 134° (SE) 19:37:51 .
AAUSAT CUBESAT 2 26 Sep 19:33:51 19:35:11 11° 66° (ENE) 19:36:31 437.432
XW-2C 26 Sep 19:39:41 19:42:44 22° 264° (W) 19:45:48 145.795 - 145.815
STARS 26 Sep 19:42:35 19:46:46 43° 287° (WNW) 19:50:57 437.465
STRAND 1 26 Sep 19:45:43 19:48:26 14° 92° (E) 19:51:08 437.568
CUTE 1.7 + AOD 2 26 Sep 19:52:57 19:57:14 80° 77° (ENE) 20:01:31 437.475
LilacSat-2 26 Sep 19:57:25 19:59:21 13° 267° (W) 20:01:16 437.200
AO-73 26 Sep 19:58:41 20:00:39 13° 65° (ENE) 20:02:37 145.935
KAITUO 1B 26 Sep 20:01:57 20:04:23 16° 266° (W) 20:06:49 145.475/437.950
ZACube-1 26 Sep 20:02:50 20:05:32 16° 66° (ENE) 20:08:17 437.345
JUGNU 26 Sep 20:13:03 20:16:28 16° 182° (S) 20:19:53 437.505
BEESAT 3 26 Sep 20:17:21 20:20:51 29° 306° (NW) 20:24:24 437.485
XW-2A 26 Sep 20:20:33 20:23:56 69° 78° (ENE) 20:27:21 145.665 - 145.685
BEESAT 2 26 Sep 20:32:11 20:36:09 66° 301° (WNW) 20:40:11 435.950
ISS 26 Sep 20:35:16 20:38:24 43° 323° (NW) 20:41:32 437.550
NO-84 26 Sep 20:45:20 20:48:09 42° 231° (SW) 20:50:51 435.350 FM
SEEDS 26 Sep 20:54:24 20:58:10 31° 263° (W) 21:01:56 437.485
HO-68 26 Sep 20:54:31 21:00:52 34° 263° (W) 21:07:16 435.675
UWE-3 26 Sep 20:57:26 21:01:40 61° 260° (W) 21:06:05 435.000/436.395/437.385
CUBEBUG 2 26 Sep 20:58:26 21:02:16 32° 263° (W) 21:06:13 437.445
AAUSAT CUBESAT 2 26 Sep 21:06:05 21:10:08 52° 260° (W) 21:14:13 437.432
nSIGHT-1 26 Sep 21:08:44 21:11:15 20° 330° (NNW) 21:13:46 .
AO-85 26 Sep 21:09:17 21:12:35 26° 307° (NW) 21:15:57 145.980
STRAND 1 26 Sep 21:22:52 21:27:56 58° 287° (WNW) 21:32:58 437.568
Oscar 11 26 Sep 21:26:58 21:31:18 88° 253° (WSW) 21:35:41 .
AO-73 26 Sep 21:32:07 21:36:21 52° 261° (W) 21:40:42 145.935
ZACube-1 26 Sep 21:37:21 21:41:25 40° 262° (W) 21:45:37 437.345
EO-88 26 Sep 21:42:47 21:44:31 13° 68° (ENE) 21:46:14 145.990 - 145.960
SRMSAT 26 Sep 21:44:49 21:47:54 14° 174° (S) 21:50:59 437.500
DELFI C3 26 Sep 22:02:18 22:06:05 46° 74° (ENE) 22:09:52 145.870
JUGNU 26 Sep 22:02:52 22:04:41 11° 192° (SSW) 22:06:29 437.505
FO-29 26 Sep 22:03:05 22:08:29 41° 100° (E) 22:14:29 435.910
TIGRISAT 26 Sep 22:16:52 22:19:16 14° 92° (E) 22:21:41 435.000
Max Valier Satellite 26 Sep 22:21:31 22:25:09 59° 76° (ENE) 22:28:50 145.860
SO-50 26 Sep 22:36:13 22:40:30 37° 54° (NE) 22:44:48 436.795
YUBILEINY 26 Sep 22:56:33 23:03:47 28° 71° (ENE) 23:10:59 435.215
EO-88 26 Sep 23:14:29 23:17:49 33° 262° (W) 23:21:11 145.990 - 145.960
PRISM 26 Sep 23:21:08 23:24:52 35° 99° (E) 23:28:36 437.425
PCSat 26 Sep 23:22:44 23:27:29 30° 54° (NE) 23:32:11 145.827
UNISAT 6 26 Sep 23:28:51 23:33:34 84° 284° (WNW) 23:38:15 437.425
SRMSAT 26 Sep 23:33:03 23:36:16 15° 184° (S) 23:39:28 437.500
DELFI C3 26 Sep 23:40:22 23:41:03 10° 268° (W) 23:41:43 145.870
FO-29 26 Sep 23:48:45 23:53:23 26° 291° (WNW) 23:58:26 435.910
TIGRISAT 26 Sep 23:51:38 23:56:11 51° 286° (WNW) 00:00:44 435.000
SPROUT 26 Sep 23:55:31 23:56:42 11° 65° (ENE) 23:57:53 437.525
LO-87 26 Sep 23:58:43 00:02:15 88° 268° (W) 00:05:47 145.935 - 145.965
ESTCUBE 1 27 Sep 00:07:32 00:12:02 73° 76° (ENE) 00:16:34 437.505/2401.250
SO-50 27 Sep 00:17:14 00:20:42 21° 249° (WSW) 00:24:11 436.795
VELOX 1 27 Sep 00:22:14 00:25:09 18° 67° (ENE) 00:28:03 145.980
NANOSAT C BR1 27 Sep 00:25:41 00:27:53 14° 93° (E) 00:30:03 145.865
DUCHIFAT 1 27 Sep 00:50:57 00:54:25 24° 96° (E) 00:57:53 145.980
YUBILEINY 27 Sep 00:52:30 01:00:58 57° 269° (W) 01:09:28 435.215
PRISM 27 Sep 00:57:24 00:59:49 15° 293° (WNW) 01:02:14 437.425
Tancredo 1 27 Sep 01:00:47 01:03:00 23° 34° (NE) 01:05:13 437.200
PCSat 27 Sep 01:06:00 01:10:51 34° 251° (WSW) 01:15:40 145.827
AIST 2D 27 Sep 01:06:45 01:10:05 43° 285° (WNW) 01:13:24 435.315
POLYITAN 1 27 Sep 01:09:47 01:14:00 53° 100° (E) 01:18:10 437.675
EO-79 27 Sep 01:12:58 01:17:12 59° 101° (E) 01:21:24 145.935-145.965
BUGSAT 1 27 Sep 01:14:27 01:14:44 10° 91° (E) 01:15:01 437.445
DX 1 27 Sep 01:19:06 01:22:08 19° 67° (ENE) 01:25:10 434.975-435.025
SPROUT 27 Sep 01:27:54 01:32:03 57° 260° (W) 01:36:14 437.525
QB50P2 27 Sep 01:27:54 01:32:12 82° 284° (WNW) 01:36:29 145.880/145.840
ISS 27 Sep 01:30:00 01:31:16 12° 22° (NNE) 01:32:32 437.550
VELOX 1 27 Sep 01:57:13 02:01:16 36° 262° (W) 02:05:21 145.980
NANOSAT C BR1 27 Sep 01:59:42 02:03:45 42° 287° (WNW) 02:07:45 145.865
nSIGHT-1 27 Sep 02:01:24 02:03:50 19° 29° (NNE) 02:06:16 .
M-CUBED/EXP-1 PRIME 27 Sep 02:10:24 02:13:31 42° 105° (ESE) 02:16:38 437.505
50 SAT 27 Sep 02:10:40 02:13:56 72° 257° (WSW) 02:17:14 437.505
O/OREOS (USA 219) 27 Sep 02:10:59 02:15:22 55° 106° (ESE) 02:19:48 437.305
Oscar 19 27 Sep 02:15:45 02:20:04 27° 96° (E) 02:24:21 437.125/150
DUCHIFAT 1 27 Sep 02:26:31 02:29:58 24° 290° (WNW) 02:33:24 145.980
Gurwin Techsat 1B 27 Sep 02:30:24 02:34:45 25° 96° (E) 02:39:05 435.225
Tancredo 1 27 Sep 02:35:18 02:37:17 19° 229° (SW) 02:39:16 437.200
UKube-1 27 Sep 02:38:48 02:43:05 81° 255° (WSW) 02:47:25 .
BUGSAT 1 27 Sep 02:46:13 02:50:22 56° 286° (WNW) 02:54:31 437.445
ITUPSAT 1 27 Sep 02:47:34 02:50:02 14° 64° (ENE) 02:52:29 437.325
POLYITAN 1 27 Sep 02:47:36 02:49:16 12° 295° (WNW) 02:50:56 437.675
EO-79 27 Sep 02:51:14 02:52:24 11° 295° (WNW) 02:53:34 145.935-145.965
DX 1 27 Sep 02:54:09 02:58:03 33° 262° (W) 03:01:58 434.975-435.025
ISS 27 Sep 03:05:00 03:08:16 66° 40° (NE) 03:11:32 437.550
MOZHAYETS 4 27 Sep 03:18:04 03:22:00 28° 70° (ENE) 03:25:56
BEESAT 27 Sep 03:19:40 03:23:50 31° 69° (ENE) 03:28:00 436.000
nSIGHT-1 27 Sep 03:37:11 03:40:18 44° 226° (SW) 03:43:24 .
AO-7 27 Sep 03:40:29 03:46:07 20° 94° (E) 03:51:43 .
O/OREOS (USA 219) 27 Sep 03:52:53 03:55:08 13° 303° (WNW) 03:57:22 437.305
Oscar 19 27 Sep 03:54:49 03:59:20 31° 291° (WNW) 04:03:49 437.125/150
CUBESAT XI-V 27 Sep 03:55:59 03:58:37 15° 66° (ENE) 04:01:14 437.345
AO-85 27 Sep 04:02:39 04:04:43 13° 47° (NE) 04:06:51 145.980
Gurwin Techsat 1B 27 Sep 04:09:55 04:14:42 35° 290° (WNW) 04:19:29 435.225
RS-15 27 Sep 04:18:55 04:29:30 37° 105° (ESE) 04:40:11 29.354- 29.394
ITUPSAT 1 27 Sep 04:22:39 04:27:20 56° 260° (W) 04:32:03 437.325
BEESAT 3 27 Sep 04:35:44 04:39:41 68° 60° (ENE) 04:43:33 437.485
KKS-1 27 Sep 04:48:09 04:51:04 18° 67° (ENE) 04:54:01 437.445
BEESAT 2 27 Sep 04:52:20 04:55:56 30° 54° (NE) 04:59:28 435.950
MOZHAYETS 4 27 Sep 04:55:18 04:59:04 25° 264° (W) 05:02:52
BEESAT 27 Sep 04:57:45 05:01:33 24° 264° (W) 05:05:23 436.000
ITAMSAT 1 27 Sep 05:07:21 05:12:34 78° 103° (ESE) 05:17:47 435.822/435.867
CUBESAT XI-V 27 Sep 05:30:57 05:35:31 50° 260° (W) 05:40:05 437.345
AO-7 27 Sep 05:31:15 05:39:32 77° 289° (WNW) 05:47:48 .
AO-85 27 Sep 05:41:00 05:45:33 77° 242° (WSW) 05:50:27 145.980
